TIME,DELAY(SENSOR),PRES,OXYGEN,RAWTEMP,T(OPTODE),TCPHASE,FLUOR,BETA(BETA700),BETA(BETA412),BETA(BETA440),CDOM,C(CSC),ED(ED411.90),ED(ED443.80),ED(ED489.40),ED(ED554.70),LU(LU412.20),LU(LU443.80),LU(LU489.40),LU(LU555.00),COMP,TILTX,TILTY,CHECK
1347659847,5805,899.8900146484375000,166.1251068115234400,439.0282897949219000,9.7771997451782230,39.7127304077148440,51,106,98,82,73,15118,2147453494,2147789440,2147577462,2147823378,2147304512,2147455579,2147751360,2148268635,509,6,14,5544
1347663444,5800,1040.0000000000000000,197.1941070556640600,507.2464904785156000,7.6531181335449220,38.7667503356933600,50,106,99,81,73,15114,2147442834,2147795785,2147582976,2147831725,2147304237,2147446418,2147761810,2148277659,1133,6,14,26866
1347667044,5802,14.3000001907348630,207.6174011230468800,517.4163208007812000,7.3339138031005860,38.3113098144531250,51,107,99,83,75,15111,2147437805,2147797558,2147583670,2147829741,2147307456,2147448301,2147759076,2148281874,3549,6,14,6343
1347670644,5803,10.1000003814697270,207.6994934082031200,518.8605957031250000,7.2885189056396480,38.3314094543457000,51,108,99,82,73,15112,2147436562,2147796790,2147586532,2147830729,2147306340,2147443638,2147762322,2148274953,3258,6,14,54591
1347674244,5804,14.1999998092651370,210.1448974609375000,520.4824829101562000,7.2375278472900390,38.2166786193847660,51,105,100,80,74,15113,2147434523,2147796827,2147587510,2147833206,2147307602,2147443108,2147765120,2148276544,46,6,14,15678
1347677844,5805,10.3999996185302730,208.2460021972656200,518.1553955078125000,7.3106851577758790,38.2868118286132800,51,107,99,82,74,15106,2147436461,2147797120,2147582976,2147828754,2147303570,2147449033,2147763693,2148280996,112,6,14,1964
1347681444,5803,14.8000001907348630,208.6166992187500000,518.5825805664062000,7.2972579002380370,38.2723197937011700,52,210,100,82,75,15113,2147434752,2147798500,2147582646,2147830016,2147306642,2147452032,2147763254,2148280557,404,6,14,60771
1347685044,5804,14.8000001907348630,208.9797058105468800,519.0850219726562000,7.2814650535583500,38.2603492736816400,51,106,99,82,75,15112,2147440566,2147797897,2147584713,2147832219,2147304301,2147449234,2147762550,2148275648,138,6,14,49655
1347688644,5803,1051.0000000000000000,203.2026977539062500,512.3361206054688000,7.4934592247009280,38.4861488342285160,51,105,99,82,75,15112,2147440164,2147794962,2147582390,2147831771,2147305280,2147447689,2147760758,2148277595,3490,6,14,53760
1347692244,5804,10.5000000000000000,203.5084075927734400,513.3585815429688000,7.4613609313964840,38.4853782653808600,50,110,100,82,74,15102,2147439570,2147797677,2147580918,2147833270,2147307346,2147446957,2147762020,2148276342,2976,6,14,5687
1347695844,5804,10.6999998092651370,204.0753021240234400,513.5728759765625000,7.4546341896057130,38.4553794860839840,51,106,99,81,74,15088,2147438656,2147797696,2147582537,2147830400,2147303424,2147449526,2147767433,2148278829,3388,6,14,15866
1347699444,5806,1232.0000000000000000,204.1598052978515600,514.6981811523438000,7.4192981719970700,38.4702987670898440,51,108,98,82,74,15085,2147436269,2147796361,2147582491,2147827483,2147305883,2147451428,2147765037,2148278153,93,6,14,64971
1347703044,5802,2.0000000000000000,205.1239013671875000,514.6978759765625000,7.4193058013916020,38.4121894836425800,50,106,99,82,75,15087,2147437613,2147796342,2147583094,2147831734,2147308864,2147451547,2147764242,2148278537,3597,6,14,59579
1347706644,5807,12.3999996185302730,204.8995971679687500,514.5084838867188000,7.4252538681030270,38.4224510192871100,50,104,98,82,74,14950,2147441453,2147794578,2147582162,2147829293,2147306139,2147448402,2147759168,2148280027,240,6,15,14651
1347710244,5804,1302.0000000000000000,204.0487060546875000,513.3798217773438000,7.4606938362121580,38.4532012939453100,51,109,99,81,74,14949,2147437952,2147793526,2147585069,2147831021,2147307766,2147446427,2147761563,2148280813,3425,6,14,46647
1347713844,5803,13.0000000000000000,201.8589019775390600,511.9511108398437500,7.5055408477783200,38.5607299804687500,51,104,99,82,74,14948,2147441462,2147793910,2147581604,2147830180,2147307675,2147451931,2147767049,2148279012,453,6,14,32849
1347717444,5805,13.5000000000000000,202.4421997070312500,511.9533081054687500,7.5054740905761720,38.5260505676269500,51,107,99,82,75,14950,2147438619,2147797622,2147579620,2147829065,2147306422,2147450477,2147766363,2148276827,2293,6,14,54603
1347721044,5803,11.1000003814697270,197.0968017578125000,503.7463073730469000,7.7628149986267090,38.7105598449707000,50,105,98,81,74,15027,2147440274,2147797101,2147581869,2147828873,2147307995,2147452681,2147765403,2148276690,352,6,14,58966
1347724644,5804,11.8000001907348630,196.9347991943359400,503.5173950195312500,7.7699837684631350,38.7176208496093750,52,107,98,81,74,15025,2147438966,2147797558,2147579492,2147828882,2147308864,2147449746,2147758134,2148277110,405,6,14,17980
1347728244,5805,10.8999996185302730,197.2308959960937500,505.0899963378906000,7.7207131385803220,38.7265090942382800,51,112,97,81,74,15025,2147441106,2147796224,2147583478,2147827474,2147302445,2147451373,2147760667,2148277202,236,6,14,50671
1347731844,5805,11.6999998092651370,196.3502044677734400,505.4023132324219000,7.7109270095825195,38.7865600585937500,51,109,99,83,75,15026,2147439478,2147796004,2147581952,2147828132,2147306413,2147449636,2147761636,2148277238,3345,6,14,40953
1347735444,5804,11.8999996185302730,197.8768005371093800,506.4671020507812500,7.6775522232055660,38.7098312377929700,51,105,98,82,75,15027,2147441225,2147797613,2147581257,2147825097,2147306733,2147452004,2147761956,2148277156,2774,6,14,54183
1347739044,5802,11.1999998092651370,198.2010955810547000,506.9450073242187500,7.6625680923461910,38.6983489990234400,51,104,100,81,75,15024,2147437220,2147795949,2147582299,2147823862,2147303350,2147450505,2147762368,2148279168,3566,6,14,46522
1347742644,5805,11.3000001907348630,197.9221038818359400,506.9462890625000000,7.6625280380249020,38.7158508300781250,51,105,97,82,73,15019,2147441252,2147794825,2147580800,2147827309,2147305691,2147452589,2147759222,2148276022,45,6,14,31166
1347746244,5805,11.3000001907348630,197.9971008300781200,506.8320922851562500,7.6661081314086910,38.7088584899902340,51,104,97,81,75,15022,2147440548,2147796699,2147583250,2147825654,2147307885,2147454427,2147764781,2148273636,145,6,14,61821
1347749844,5807,11.1000003814697270,196.9019927978515600,505.3375854492187500,7.7129521369934080,38.7509803771972660,51,105,99,82,74,15019,2147442048,2147792548,2147582902,2147826084,2147305426,2147452260,2147763721,2148278070,37,6,14,32222
1347753444,5806,11.8000001907348630,195.9741058349609400,505.5150146484375000,7.7073950767517090,38.8127098083496100,51,103,98,81,75,15019,2147439597,2147794176,2147581714,2147828617,2147305526,2147448329,2147762468,2148277257,495,6,13,45456
1347757044,5801,1173.0000000000000000,194.9151000976562500,504.7141113281250000,7.7324910163879395,38.8657798767089840,51,105,98,80,74,15019,2147443318,2147794176,2147584914,2147828562,2147308032,2147457179,2147764388,2148274733,3575,6,14,43797
1347760644,5804,11.6999998092651370,195.3291015625000000,506.1054077148437500,7.6888880729675290,38.8636817932128900,51,104,98,82,75,15017,2147444553,2147791780,2147577618,2147827172,2147303350,2147450368,2147764781,2148277668,3056,6,15,30398
1347764244,5805,10.1000003814697270,196.1484985351562500,506.8212890625000000,7.6664481163024900,38.8242111206054700,51,104,97,82,74,15019,2147441060,2147796050,2147580553,2147830253,2147304621,2147450944,2147763044,2148279478,3545,6,14,50762
1347767844,5805,11.5000000000000000,195.2937011718750000,505.8103942871094000,7.6981339454650880,38.8608398437500000,50,103,97,82,74,15018,2147439972,2147794797,2147583954,2147827584,2147304640,2147450139,2147760658,2148281097,3476,6,14,35099
1347771444,5804,11.1000003814697270,195.4759063720703000,505.4672851562500000,7.7088871002197270,38.8428916931152340,51,104,99,82,74,15015,2147438994,2147794432,2147581613,2147829952,2147303862,2147455378,2147760484,2148279186,102,6,14,64147
1347775044,5804,11.8000001907348630,193.5684051513672000,505.7939147949219000,7.6986517906188965,38.9695510864257800,51,107,99,81,74,15019,2147443346,2147796224,2147583104,2147828187,2147301266,2147445056,2147765321,2148278317,3584,6,14,37543
1347778644,5802,10.1999998092651370,197.8392028808593800,507.1839904785156000,7.6550760269165040,38.7246093750000000,51,106,99,82,74,15020,2147441106,2147797997,2147580050,2147828790,2147303917,2147451584,2147761892,2148278738,756,6,14,45185
1347782244,5801,11.5000000000000000,198.6921997070312500,507.5660095214844000,7.6430997848510740,38.6792907714843750,51,104,99,82,75,15015,2147439040,2147795145,2147581248,2147830125,2147306404,2147449316,2147762130,2148277321,978,6,14,8462
1347785844,5802,1183.0000000000000000,198.3930969238281200,507.2094116210937500,7.6542820930480960,38.6909599304199200,51,114,98,82,75,15014,2147437449,2147791305,2147580973,2147826770,2147304356,2147453229,2147760027,2148278930,995,6,14,61095
1347789444,5805,11.3999996185302730,198.0682983398437500,508.7615966796875000,7.6056079864501950,38.7379188537597660,51,105,99,83,75,15020,2147439405,2147797357,2147583533,2147828754,2147307401,2147453257,2147757266,2148274669,3311,6,14,24625
1347793044,5802,11.1000003814697270,194.5482025146484400,508.3868103027344000,7.6173620223999020,38.9527587890625000,51,104,99,83,74,15018,2147445824,2147797659,2147580699,2147827364,2147304356,2147454720,2147760347,2148278866,3294,6,14,63888
1347796644,5804,10.8000001907348630,192.7066040039062500,507.2738037109375000,7.6522622108459470,39.0507583618164060,51,106,97,82,75,15019,2147435885,2147799680,2147582125,2147828845,2147304731,2147449389,2147765074,2148276242,3512,6,14,46160
1347800244,5804,10.6000003814697270,192.2113952636718800,508.1296997070312500,7.6254239082336430,39.0972099304199200,51,107,98,81,74,15016,2147440932,2147793435,2147583707,2147828589,2147307904,2147447104,2147759643,2148277065,171,6,14,64010
1347802255,5805,1200.0000000000000000,194.1197967529297000,507.7520141601562500,7.6372690200805660,38.9691200256347660,51,105,97,81,74,15020,2147440576,2147798244,2147584054,2147827062,2147305170,2147451867,2147756288,2148277019,125,6,14,16507
